Weather History for Rush City, MN

Change the Weather History Date:

Thursday, November 1, 2012

  Actual Average (KCBG) Record (KCBG)
Temperature  
Mean Temperature 34 °F -  
Max Temperature 43 °F 48 °F 66 °F (1990)
Min Temperature 27 °F 31 °F 5 °F (1951)
Degree Days  
Heating Degree Days 30    
Moisture  
Dew Point 25 °F    
Average Humidity 62    
Maximum Humidity 80    
Minimum Humidity 47    
Precipitation  
Precipitation 0.00 in - - ()
Sea Level Pressure  
Sea Level Pressure 29.98 in    
Wind  
Wind Speed 6 mph (NNW)    
Max Wind Speed 15 mph    
Max Gust Speed 20 mph    
Visibility 10 miles    
Events      
Averages and records for this station are not official NWS values.
T = Trace of Precipitation, MM = Missing Value Source: NWS Daily Summary

Daily Weather History Graph

Daily Weather History Graph

Search for Another Location

Airport:

Trip Planner

Search our weather history database for the weather conditions in past years. The results will help you decide how hot, cold, wet, or windy it might be!

Date:

Astronomy

Nov. 01, 2012 Rise Set
Actual Time 7:52 AM CDT 5:57 PM CDT
Civil Twilight 7:21 AM CDT 6:28 PM CDT
Nautical Twilight 6:46 AM CDT 7:03 PM CDT
Astronomical Twilight 6:11 AM CDT 7:38 PM CDT
Moon 7:48 PM CDT (11/1) 10:32 AM CDT (11/1)
Length of Visible Light 11h 07m
Length of Day
10h 05m
Waning Gibbous, 93% of the Moon is Illuminated
Nov 1
Waning Gibbous
Nov 6
Last Quarter
Nov 13
New
Nov 20
First Quarter
Nov 28
Full

Hourly Weather History & Observations

Time (CDT) Temp. Windchill Dew Point Humidity Pressure Visibility Wind Dir Wind Speed Gust Speed Precip Events Conditions
12:14 AM 39.0 °F 36.8 °F 22.6 °F 52% 29.92 in 10.0 mi West 3.5 mph - N/A   Mostly Cloudy
12:35 AM 38.5 °F 36.1 °F 22.1 °F 52% 29.91 in 10.0 mi West 3.5 mph - N/A   Mostly Cloudy
12:54 AM 37.6 °F 35.1 °F 23.0 °F 56% 29.91 in 10.0 mi West 3.5 mph - N/A   Overcast
1:15 AM 36.0 °F 33.3 °F 22.6 °F 58% 29.91 in 10.0 mi West 3.5 mph - N/A   Mostly Cloudy
1:34 AM 33.6 °F 30.6 °F 22.6 °F 64% 29.91 in 10.0 mi West 3.5 mph - N/A   Scattered Clouds
1:55 AM 33.1 °F - 21.4 °F 62% 29.91 in 10.0 mi Calm Calm - N/A   Mostly Cloudy
2:14 AM 33.6 °F 29.4 °F 22.1 °F 63% 29.91 in 10.0 mi West 4.6 mph - N/A   Overcast
2:34 AM 32.7 °F 28.3 °F 22.8 °F 67% 29.92 in 10.0 mi WNW 4.6 mph - N/A   Mostly Cloudy
2:54 AM 33.6 °F 29.4 °F 22.3 °F 63% 29.92 in 10.0 mi NW 4.6 mph - N/A   Mostly Cloudy
3:14 AM 36.1 °F 33.5 °F 23.0 °F 59% 29.91 in 10.0 mi WNW 3.5 mph - N/A   Overcast
3:34 AM 36.0 °F - 23.7 °F 61% 29.91 in 10.0 mi Calm Calm - N/A   Overcast
3:54 AM 39.0 °F 35.7 °F 26.6 °F 61% 29.91 in 10.0 mi NNW 4.6 mph - N/A   Overcast
4:15 AM 40.8 °F 36.2 °F 26.2 °F 56% 29.92 in 10.0 mi NW 6.9 mph - N/A   Overcast
4:34 AM 40.6 °F 35.4 °F 26.4 °F 57% 29.92 in 10.0 mi NNW 8.1 mph - N/A   Overcast
4:55 AM 40.5 °F 35.8 °F 27.9 °F 61% 29.92 in 10.0 mi NNW 6.9 mph - N/A   Overcast
5:14 AM 40.3 °F 33.9 °F 28.4 °F 63% 29.93 in 10.0 mi NNW 10.4 mph - N/A   Overcast
5:34 AM 40.1 °F 35.3 °F 29.1 °F 65% 29.94 in 10.0 mi NNW 6.9 mph - N/A   Overcast
5:54 AM 39.6 °F 35.4 °F 29.7 °F 68% 29.94 in 10.0 mi NNW 5.8 mph - N/A   Overcast
6:14 AM 39.6 °F 34.0 °F 30.9 °F 71% 29.94 in 10.0 mi NNW 8.1 mph - N/A   Overcast
6:34 AM 39.2 °F 35.0 °F 31.1 °F 73% 29.95 in 10.0 mi NNW 5.8 mph - N/A   Overcast
6:54 AM 39.2 °F 33.6 °F 32.0 °F 75% 29.95 in 10.0 mi NNW 8.1 mph - N/A   Overcast
7:15 AM 39.2 °F 34.2 °F 32.0 °F 75% 29.95 in 10.0 mi NW 6.9 mph - N/A   Overcast
7:34 AM 39.2 °F 35.0 °F 32.2 °F 76% 29.95 in 10.0 mi NW 5.8 mph - N/A   Overcast
7:54 AM 38.8 °F 33.8 °F 32.0 °F 76% 29.96 in 10.0 mi NW 6.9 mph - N/A   Overcast
8:15 AM 39.0 °F 34.8 °F 31.8 °F 75% 29.96 in 10.0 mi NNW 5.8 mph - N/A   Overcast
8:34 AM 38.8 °F 34.6 °F 30.6 °F 72% 29.97 in 10.0 mi NNW 5.8 mph - N/A   Overcast
8:54 AM 38.8 °F 32.6 °F 31.6 °F 75% 29.98 in 10.0 mi NW 9.2 mph 16.1 mph N/A   Overcast
9:14 AM 38.3 °F 31.9 °F 31.1 °F 75% 29.99 in 10.0 mi NNW 9.2 mph - N/A   Mostly Cloudy
9:34 AM 39.0 °F 33.4 °F 31.3 °F 74% 29.98 in 10.0 mi NNW 8.1 mph - N/A   Scattered Clouds
9:54 AM 39.7 °F 32.7 °F 30.2 °F 69% 29.98 in 10.0 mi NNW 11.5 mph 17.3 mph N/A   Clear
10:14 AM 40.8 °F 34.1 °F 30.0 °F 65% 29.99 in 10.0 mi NNW 11.5 mph 17.3 mph N/A   Scattered Clouds
10:34 AM 40.5 °F 33.2 °F 29.1 °F 64% 29.98 in 10.0 mi NNW 12.7 mph 19.6 mph N/A   Scattered Clouds
10:55 AM 39.6 °F 32.5 °F 27.5 °F 62% 29.99 in 10.0 mi North 11.5 mph - N/A   Mostly Cloudy
11:14 AM 39.4 °F 34.5 °F 28.0 °F 64% 29.99 in 10.0 mi NW 6.9 mph - N/A   Overcast
11:35 AM 39.9 °F 33.4 °F 27.5 °F 61% 29.99 in 10.0 mi NW 10.4 mph - N/A   Overcast
11:54 AM 41.4 °F 34.3 °F 25.9 °F 54% 29.99 in 10.0 mi NNW 12.7 mph 17.3 mph N/A   Mostly Cloudy
12:14 PM 41.5 °F 34.2 °F 25.3 °F 53% 29.99 in 10.0 mi NNW 13.8 mph 17.3 mph N/A   Mostly Cloudy
12:34 PM 41.2 °F 34.5 °F 24.8 °F 52% 29.99 in 10.0 mi North 11.5 mph - N/A   Overcast
12:54 PM 41.4 °F 34.7 °F 25.3 °F 53% 29.98 in 10.0 mi NNW 11.5 mph 16.1 mph N/A   Overcast
1:14 PM 41.4 °F 36.2 °F 25.2 °F 53% 29.98 in 10.0 mi NNW 8.1 mph - N/A   Overcast
1:34 PM 41.7 °F 35.6 °F 24.1 °F 50% 29.98 in 10.0 mi North 10.4 mph - N/A   Overcast
1:55 PM 41.0 °F 34.7 °F 24.6 °F 52% 29.98 in 10.0 mi NNW 10.4 mph 18.4 mph N/A   Overcast
2:14 PM 42.8 °F 36.2 °F 24.3 °F 48% 29.97 in 10.0 mi NW 12.7 mph 17.3 mph N/A   Overcast
2:34 PM 42.1 °F 34.5 °F 24.3 °F 49% 29.97 in 10.0 mi North 15.0 mph 19.6 mph N/A   Overcast
2:55 PM 41.9 °F 35.9 °F 23.0 °F 47% 29.97 in 10.0 mi North 10.4 mph 16.1 mph N/A   Mostly Cloudy
3:14 PM 41.7 °F 35.2 °F 23.7 °F 49% 29.97 in 10.0 mi North 11.5 mph 17.3 mph N/A   Scattered Clouds
3:34 PM 41.7 °F 34.8 °F 23.0 °F 47% 29.97 in 10.0 mi North 12.7 mph 17.3 mph N/A   Scattered Clouds
3:55 PM 40.3 °F 32.6 °F 22.6 °F 49% 29.98 in 10.0 mi North 13.8 mph 18.4 mph N/A   Mostly Cloudy
4:14 PM 40.5 °F 33.2 °F 23.4 °F 51% 29.98 in 10.0 mi NNW 12.7 mph - N/A   Mostly Cloudy
4:34 PM 39.6 °F 33.5 °F 22.8 °F 51% 29.99 in 10.0 mi North 9.2 mph - N/A   Overcast
4:55 PM 40.1 °F 33.6 °F 22.6 °F 50% 30.00 in 10.0 mi NNW 10.4 mph 16.1 mph N/A   Mostly Cloudy
5:14 PM 38.8 °F 33.2 °F 22.6 °F 52% 30.00 in 10.0 mi NNW 8.1 mph - N/A   Scattered Clouds
5:34 PM 36.9 °F 32.2 °F 22.3 °F 56% 30.01 in 10.0 mi NNW 5.8 mph - N/A   Clear
5:55 PM 36.0 °F 32.1 °F 22.1 °F 57% 30.01 in 10.0 mi North 4.6 mph - N/A   Scattered Clouds
6:14 PM 33.6 °F 29.4 °F 22.1 °F 63% 30.01 in 10.0 mi North 4.6 mph - N/A   Scattered Clouds
6:34 PM 35.2 °F 31.2 °F 22.6 °F 60% 30.01 in 10.0 mi North 4.6 mph - N/A   Mostly Cloudy
6:54 PM 36.0 °F 32.1 °F 23.0 °F 59% 30.02 in 10.0 mi NNW 4.6 mph - N/A   Overcast
7:14 PM 36.5 °F 31.8 °F 23.0 °F 58% 30.03 in 10.0 mi North 5.8 mph - N/A   Overcast
7:34 PM 35.8 °F 31.9 °F 23.4 °F 61% 30.03 in 10.0 mi NNE 4.6 mph - N/A   Overcast
7:54 PM 35.8 °F 31.9 °F 23.5 °F 61% 30.03 in 10.0 mi North 4.6 mph - N/A   Overcast
8:14 PM 35.6 °F - 23.4 °F 61% 30.04 in 10.0 mi Calm Calm - N/A   Overcast
8:35 PM 35.2 °F 31.2 °F 23.4 °F 62% 30.03 in 10.0 mi North 4.6 mph - N/A   Overcast
8:54 PM 35.1 °F 31.0 °F 23.2 °F 62% 30.04 in 10.0 mi North 4.6 mph - N/A   Overcast
9:14 PM 33.6 °F - 23.4 °F 66% 30.04 in 10.0 mi Calm Calm - N/A   Mostly Cloudy
9:34 PM 32.5 °F 28.1 °F 23.0 °F 68% 30.05 in 10.0 mi NNW 4.6 mph - N/A   Scattered Clouds
9:54 PM 32.0 °F 27.5 °F 22.6 °F 68% 30.05 in 10.0 mi North 4.6 mph - N/A   Clear
10:14 PM 30.0 °F 26.5 °F 21.9 °F 72% 30.05 in 10.0 mi North 3.5 mph - N/A   Clear
10:34 PM 28.9 °F 22.8 °F 21.6 °F 74% 30.06 in 10.0 mi North 5.8 mph - N/A   Clear
10:54 PM 27.7 °F 20.4 °F 21.7 °F 78% 30.06 in 10.0 mi North 6.9 mph - N/A   Clear
11:14 PM 28.8 °F 22.6 °F 22.3 °F 77% 30.06 in 10.0 mi North 5.8 mph - N/A   Clear
11:34 PM 28.9 °F 22.8 °F 22.1 °F 76% 30.07 in 10.0 mi North 5.8 mph - N/A   Clear
11:55 PM 27.1 °F 23.2 °F 21.7 °F 80% 30.07 in 10.0 mi North 3.5 mph - N/A   Clear